Regional Weather Roundup
Issued by NWS

Home | Current Version | Previous Version | Graphics & Text | Print | Product List | Glossary Off
Versions: 1 2 3 4 5 6 7 8 9 10 11 12 13 14 15 16 17 18 19 20 21 22 23 24 25 26 27 28 29 30 31 32 33 34 35 36 37 38 39 40 41 42 43 44 45 46 47 48 49 50

000
ASUS43 KBIS 251310
RWRND

NORTH DAKOTA REGIONAL WEATHER ROUNDUP
NATIONAL WEATHER SERVICE BISMARCK ND
800 AM CDT TUE APR 25 2017

NOTE: "FAIR" INDICATES FEW OR NO CLOUDS BELOW 12,000 FEET WITH NO
SIGNIFICANT WEATHER AND/OR OBSTRUCTIONS TO VISIBILITY.


NDZ001>003-009>011-017-251400-
NORTHWEST NORTH DAKOTA

CITY           SKY/WX    TMP DP  RH WIND       PRES   REMARKS
WILLISTON      CLOUDY    30  23  75 N13       29.91R WCI  20
MINOT          CLOUDY    30  24  78 N18       29.88R WCI  18
MINOT AFB      CLOUDY    28  23  81 N17       29.88S WCI  16
$$

NDZ018>021-031>035-040>046-251400-
SOUTHWEST NORTH DAKOTA

CITY           SKY/WX    TMP DP  RH WIND       PRES   REMARKS
BISMARCK       CLOUDY    30  26  85 NE20G26   29.81S WCI  17
DICKINSON      CLOUDY    26  25  96 NE15      29.77R WCI  14
GARRISON         N/A     28  23  81 NE14G24   29.84R WCI  17
HETTINGER ARPT CLOUDY    28  26  92 NE15      29.75R WCI  16
$$

NDZ004>008-012>016-024-026-027-054-251400-
NORTHEAST NORTH DAKOTA

CITY           SKY/WX    TMP DP  RH WIND       PRES   REMARKS
GRAND FORKS    CLOUDY    32  29  88 N23       29.78R WCI  19
GRND FRKS AFB  CLOUDY    30  28  93 N24       29.79S WCI  16
DEVILS LAKE    CLOUDY    28  24  85 N25G32    29.84R WCI  13
$$

NDZ022-023-025-028>030-036>039-047>053-251400-
SOUTHEAST NORTH DAKOTA

CITY           SKY/WX    TMP DP  RH WIND       PRES   REMARKS
FARGO          CLOUDY    33  31  92 N17G28    29.74R
JAMESTOWN      CLOUDY    30  27  88 N22G28    29.77R WCI  17
$$




USA.gov is the U.S. government's official web portal to all federal, state and local government web resources and services.